Terminal Aerodrome Forecast
Issued by NWS

Home | Current Version | Previous Version | Text Only | Print | Product List | Glossary On
Versions: 1 2 3 4 5 6 7 8 9 10 11 12 13 14 15 16 17 18 19 20 21 22 23
188
FTUS43 KDTX 082320
TAFMBS
TAF
KMBS 082320Z 0900/0924 31007KT P6SM BKN025 OVC035
     FM090800 31008KT 5SM -SHSN BR BKN015 OVC022
     FM091400 30014G20KT 3SM -SHSN BR OVC015
     FM092000 29012KT 1 1/2SM -SHSN BR OVC012=

USA.gov is the U.S. government's official web portal to all federal, state and local government web resources and services.